Dean International
Flight School

Career Spotlight

Mika

Mika

Congratulations to Mika from Khazakstan. She recently sent us this photo of her flying an Airbus airliner.

More...
Mika's Success Story
close

Congratulations to Mika from Khazakstan. She recently sent us this photo of her flying an Airbus airliner.

Mario

Mario

My dreams could not have been realized if I wouldn't have been part of the Dean International family.

More...
Mario's Success Story
close

"My dreams could not have been realized if I wouldn't have been part of the Dean International family. Thank you Robert, thanks to all my co-workers, and thanks to all of my students!"

Fernando

Fernando

I am now working as a First Officer at TACA and am enjoying every moment of it.

More...
Fernando's Success Story
close

"Will never forget my time of flight training at Dean International. I am now working as a First Officer at TACA and am enjoying every moment of it."

Alvaro

Alvaro

Because of the flight time I was able to built while instructing, I got the experience needed to apply to an airline in Colombia.

More...
Alvaro's Success Story
close

Dean alumnus Alvaro Londoño currently flies with Tampa Cargo. He says of his experience at Dean: "I want to take this opportunity to thank you for giving me the chance to build my experience and expand my knowledge in Dean International. Because of the flight time I was able to built flight instructing, I got the experience needed to apply to an airline in Colombia."

Ralph

Ralph

Every Aruban student of Dean International has made it into Tiara Air Aruba, that is very nice.

More...
Ralph's Success Story
close

"Next to me is my Co-Pilot, Elison. This picture was taken on our first flight together, which was almost exactly 5 years after I finished at Dean International. [...] Every Aruban student of Dean International has made it into Tiara Air Aruba. [...] The future looks bright here in Aruba."

Rohaan

Rohaan

The [..] staff will all work diligently to help you finish your certificates as safely and efficiently as possible.

More...
Rohaan's Success Story
close

After receiving very hard times from other flight schools [...], I came to Dean International where Robert Dean personally sat down with me and gave me a financial and chronological look into how much remained to finish my private pilot certificate. Through his hard efforts as an instructor and mentor, I was able to finish my private pilot certificate within one week.

Welcome to Dean International

In over two decades, Dean International has educated over 7,000 pilots from all over the world, including over 1,000 students from India alone. By offering a great training experience, a friendly service staff, an ample variety of aircraft, and by improving constantly, we have become one of the largest, most prestigious FAA 141-approved flight schools in North America. Located in Miami, Florida, USA, our flight school offers an ideal location for year-round, "learn to fly" weather, flight training. Dean International is not only well-equipped to provide services to professional trainees but also caters to General Aviation renters. Visit or contact our headquarters at Kendall-Tamiami Executive Airport located in Miami, FL today to learn more about us, or simply read more about our programs if you are an international student interested in joining our school.

Local Airport Information
TAF FOR KTMB (Issued: Tue, May 31st 2016 9:12 PM UTC)
TAF
      AMD KTMB 312110Z 3121/0118 10006KT P6SM FEW030 BKN250
      FM010000 VRB02KT P6SM FEW025 SCT250
      FM011400 VRB05KT P6SM VCSH FEW025 SCT060
     
METAR FOR KTMB (Issued: Wed, June 1st 2016 12:53 AM UTC):
KTMB 010053Z 08003KT 10SM CLR 24/22 A2993 RMK AO2 SLP136 T02390217

This weather information is provided by the National Weather Service.
It is automatically refreshed every three minutes.
TAF FOR KHST (Issued: Wed, June 1st 2016 12:09 AM UTC)
TAF KHST 010000Z 0100/0206 32006KT 9999 VCTS FEW040CB QNH2990INS
      BECMG 0102/0103 VRB06KT 9999 NSW FEW200 QN2991INS
      BECMG 0114/0115 28006KT 9999 FEW055 QNH2995INS
      BECMG 0116/0117 27006KT 9000 -SHRA SCT040 QNH2993INS
      TEMPO 0118/0122 VRB10G15KT 8000 -TSRA BKN030CB
      BECMG 0200/0201 31006KT 9999 NSW FEW011 QNH2992INS TX31/0117Z TN24/0108Z
     
METAR FOR KHST (Issued: Wed, June 1st 2016 12:58 AM UTC):
KHST 010058Z AUTO 09002KT 10SM FEW023 26/23 A2994 RMK AO2 SLP142 T02600227

This weather information is provided by the National Weather Service.
It is automatically refreshed every three minutes.
TAF FOR KOPF (Issued: Tue, May 31st 2016 9:12 PM UTC)
TAF
      AMD KOPF 312109Z 3121/0118 11006KT P6SM SCT030 BKN250
      FM010000 VRB02KT P6SM FEW025 SCT250
      FM011400 09005KT P6SM VCSH FEW025 SCT060
     
METAR FOR KOPF (Issued: Wed, June 1st 2016 12:53 AM UTC):
KOPF 010053Z 00000KT 10SM CLR 26/22 A2994 RMK AO2 SLP140 T02560222

This weather information is provided by the National Weather Service.
It is automatically refreshed every three minutes.
TAF FOR KMIA (Issued: Tue, May 31st 2016 9:12 PM UTC)
TAF
      AMD KMIA 312108Z 3121/0118 11006KT P6SM FEW025 BKN250
      FM010000 VRB03KT P6SM FEW025 SCT250
      FM011400 09005KT P6SM VCSH FEW025 SCT060
     
METAR FOR KMIA (Issued: Wed, June 1st 2016 12:53 AM UTC):
KMIA 010053Z 11005KT 10SM FEW025 FEW140 BKN250 27/22 A2993 RMK AO2 SLP137 T02670222

This weather information is provided by the National Weather Service.
It is automatically refreshed every three minutes.
Design by Ariel Llizo
© Dean International Inc. 2012